Weather in Nizhniy Reutets

Russia / Kursk Oblast     51°21′32″N   36°02′14″E
В апреле 2022 года жителям России запретили посещать сайт meteo.paraplan.net по решению Генеральной прокуратуры. Аудитория сайта уменьшилась в 10 раз. Владельцы сайта не видят смысла в поддержке погодного сервера в таких условиях. Сайт будет закрыт в октябре.
temp.,
°C
wind,
m/s
gust,
m/s
humid.,
%
clouds,
%
prec.,
mm/h
press.,
hPa
HPBL,
m
3 october, mon
mon300:00+13sw6895100 9.2 994603
03:00+10sw6992100 10.1 995844
06:00+7sw71092100 0.4 9971007
09:00+7sw81286100 0.6 9981318
12:00+7sw81490100 0.5 10001260
15:00+9sw91884100 1.3 10021221
18:00+10ssw8158154 0.3 1004900
21:00+9ssw815835 0.3 1005799
4 october, tue
tue400:00+8ssw7158747 0.0 1006815
03:00+9s81578100 0.0 1006860
06:00+9ssw81480100 0.1 1007816
09:00+8sw51090100 0.7 1009862
12:00+11ssw81171100 0.4 10101325
15:00+10wsw71178100 0.8 10121298
18:00+9sw61181100 0.2 1013782
21:00+8sw61284100 0.2 1014659
5 october, wed
wed500:00+8sw61185100 0.1 1015606
03:00+8sw71190100 0.3 1015820
06:00+8sw61290100 0.2 1016611
09:00+9wsw6118844 0.3 1017827
12:00+9wsw6984100 0.4 1019994
15:00+11w687494 0.7 10191123
18:00+8w488497 0.4 1021284
21:00+7wsw399329 0.4 1022229
6 october, thu
thu600:00+8w41092100 0.1 1022372
03:00+8wsw4994100 0.2 1023370
06:00+8wsw489380 0.1 1023274
09:00+9sw4892100 0.1 1023250
12:00+13wsw577526 0.0 1022688
15:00+15wsw576632 0.0 10211064
18:00+12wsw487771 0.0 1022293
21:00+10wsw410905 0.0 1022233
7 october, fri
fri700:00+9wsw4109363 0.0 1022214
03:00+9w38955 0.0 1022153
06:00+9wnw38976 0.0 1023171
09:00+11nw598911 0.0 1024357
12:00+14nw56590 0.0 1025751
15:00+15nw56530 0.0 1025880
18:00+12nw33731 0.0 102641
21:00+10nw23800 0.0 102629